Location: Peterborough
(44.3048°N, 78.3199°W)
Time: 03:45:25
(UTC-04:00)

ISS - Pass Details

Date: 20 May 2025
Orbit: 415 x 418 km, 51.6° (Epoch: 20 June)

Event Time Altitude Azimuth Distance (km) Brightness Sun altitude
Rises 21:34:10 0° 298° (WNW) 2,363 2.1 -8.9°
Reaches altitude 10° 21:36:29 10° 312° (NW) 1,497 0.7 -9.2°
Maximum altitude 21:39:23 26° 11° (NNE) 859 -1.8 -9.6°
Drops below altitude 10° 21:42:16 10° 71° (ENE) 1,492 -1.3 -10.0°
Enters shadow 21:43:28 - 80° (E) 1,928 -0.8 -10.1°
